Time,TemperatureF,DewpointF,PressureIn,WindDirection,WindDirectionDegrees,WindSpeedMPH,WindSpeedGustMPH,Humidity,HourlyPrecipIn,Conditions,Clouds,dailyrainin,SoftwareType,DateUTC
2013-05-13 00:02:00,36.0,31.0,30.09,East,99,1.0,2.0,83,0.00,,,0.00,,2013-05-13 05:02:00,
2013-05-13 00:12:00,37.0,32.0,30.10,SW,232,0.0,3.0,82,0.00,,,0.00,,2013-05-13 05:12:00,
2013-05-13 00:21:00,37.0,32.0,30.10,SW,232,0.0,3.0,82,0.00,,,0.00,,2013-05-13 05:21:00,
2013-05-13 00:32:00,36.0,31.0,30.10,ENE,65,1.0,2.0,83,0.00,,,0.00,,2013-05-13 05:32:00,
2013-05-13 00:42:00,36.0,31.0,30.10,ENE,65,1.0,2.0,83,0.00,,,0.00,,2013-05-13 05:42:00,
2013-05-13 00:52:00,37.0,33.0,30.11,East,80,1.0,4.0,85,0.00,,,0.00,,2013-05-13 05:52:00,
2013-05-13 01:01:00,37.0,33.0,30.11,East,98,1.0,2.0,86,0.00,,,0.00,,2013-05-13 06:01:00,
2013-05-13 01:11:00,37.0,33.0,30.11,East,98,1.0,2.0,86,0.00,,,0.00,,2013-05-13 06:11:00,
2013-05-13 01:21:00,37.0,34.0,30.11,ESE,105,2.0,3.0,88,0.00,,,0.00,,2013-05-13 06:21:00,
2013-05-13 01:31:00,37.0,34.0,30.11,East,82,1.0,5.0,89,0.00,,,0.00,,2013-05-13 06:31:00,
2013-05-13 01:42:00,37.0,34.0,30.11,East,90,1.0,1.0,89,0.00,,,0.00,,2013-05-13 06:42:00,
2013-05-13 01:52:00,37.0,34.0,30.11,East,90,1.0,1.0,89,0.00,,,0.00,,2013-05-13 06:52:00,
2013-05-13 02:01:00,36.0,34.0,30.11,ENE,77,1.0,2.0,91,0.00,,,0.00,,2013-05-13 07:01:00,
2013-05-13 02:11:00,36.0,34.0,30.11,ENE,77,1.0,2.0,91,0.00,,,0.00,,2013-05-13 07:11:00,
2013-05-13 02:22:00,36.0,34.0,30.11,ENE,77,0.0,2.0,92,0.00,,,0.00,,2013-05-13 07:22:00,
2013-05-13 02:31:00,35.0,33.0,30.11,ENE,78,0.0,1.0,92,0.00,,,0.00,,2013-05-13 07:31:00,
2013-05-13 02:41:00,34.0,32.0,30.11,ENE,77,0.0,0.0,94,0.00,,,0.00,,2013-05-13 07:41:00,
2013-05-13 02:52:00,34.0,32.0,30.11,ENE,77,0.0,0.0,94,0.00,,,0.00,,2013-05-13 07:52:00,
2013-05-13 03:02:00,34.0,32.0,30.11,ENE,77,0.0,0.0,94,0.00,,,0.00,,2013-05-13 08:02:00,
2013-05-13 03:11:00,34.0,32.0,30.11,ENE,77,0.0,0.0,94,0.00,,,0.00,,2013-05-13 08:11:00,
2013-05-13 03:21:00,34.0,33.0,30.11,SE,141,0.0,1.0,95,0.00,,,0.00,,2013-05-13 08:21:00,
2013-05-13 03:31:00,34.0,33.0,30.11,SE,141,0.0,0.0,95,0.00,,,0.00,,2013-05-13 08:31:00,
2013-05-13 03:42:00,34.0,33.0,30.11,SE,141,0.0,0.0,95,0.00,,,0.00,,2013-05-13 08:42:00,
2013-05-13 03:52:00,32.0,31.0,30.11,SE,141,0.0,0.0,95,0.00,,,0.00,,2013-05-13 08:52:00,
2013-05-13 04:01:00,32.0,31.0,30.11,SE,141,0.0,0.0,95,0.00,,,0.00,,2013-05-13 09:01:00,
2013-05-13 04:11:00,32.0,31.0,30.11,SE,141,0.0,0.0,95,0.00,,,0.00,,2013-05-13 09:11:00,
2013-05-13 04:21:00,31.0,30.0,30.11,SE,141,0.0,0.0,96,0.00,,,0.00,,2013-05-13 09:21:00,
2013-05-13 04:33:00,31.0,30.0,30.10,SE,141,0.0,0.0,96,0.00,,,0.00,,2013-05-13 09:33:00,
2013-05-13 04:42:00,31.0,30.0,30.10,SE,141,0.0,0.0,96,0.00,,,0.00,,2013-05-13 09:42:00,
2013-05-13 04:52:00,31.0,30.0,30.10,SE,141,0.0,0.0,96,0.00,,,0.00,,2013-05-13 09:52:00,
2013-05-13 05:02:00,31.0,30.0,30.10,SE,141,0.0,0.0,96,0.00,,,0.00,,2013-05-13 10:02:00,
2013-05-13 05:12:00,31.0,30.0,30.10,SE,141,0.0,0.0,96,0.00,,,0.00,,2013-05-13 10:12:00,
2013-05-13 05:22:00,30.0,29.0,30.11,SE,141,0.0,0.0,96,0.00,,,0.00,,2013-05-13 10:22:00,
2013-05-13 05:32:00,30.0,29.0,30.11,SE,141,0.0,0.0,97,0.00,,,0.00,,2013-05-13 10:32:00,
2013-05-13 05:42:00,30.0,29.0,30.11,SE,141,0.0,0.0,97,0.00,,,0.00,,2013-05-13 10:42:00,
2013-05-13 05:52:00,30.0,29.0,30.11,SE,141,0.0,0.0,97,0.00,,,0.00,,2013-05-13 10:52:00,
2013-05-13 06:02:00,30.0,29.0,30.11,SE,141,0.0,0.0,97,0.00,,,0.00,,2013-05-13 11:02:00,
2013-05-13 06:12:00,30.0,29.0,30.11,SE,141,0.0,0.0,97,0.00,,,0.00,,2013-05-13 11:12:00,
2013-05-13 06:21:00,30.0,29.0,30.12,SE,141,0.0,0.0,97,0.00,,,0.00,,2013-05-13 11:21:00,
2013-05-13 06:32:00,31.0,30.0,30.12,SE,141,0.0,0.0,96,0.00,,,0.00,,2013-05-13 11:32:00,
2013-05-13 06:42:00,31.0,30.0,30.12,SE,141,0.0,0.0,96,0.00,,,0.00,,2013-05-13 11:42:00,
2013-05-13 06:52:00,34.0,33.0,30.13,SE,141,0.0,0.0,96,0.00,,,0.00,,2013-05-13 11:52:00,
2013-05-13 07:01:00,36.0,35.0,30.14,SE,141,0.0,0.0,97,0.00,,,0.00,,2013-05-13 12:01:00,
2013-05-13 07:11:00,36.0,35.0,30.14,SE,141,0.0,0.0,97,0.00,,,0.00,,2013-05-13 12:11:00,
2013-05-13 07:21:00,37.0,36.0,30.14,NW,316,0.0,1.0,96,0.00,,,0.00,,2013-05-13 12:21:00,
2013-05-13 07:32:00,39.0,37.0,30.15,NW,316,0.0,1.0,94,0.00,,,0.00,,2013-05-13 12:32:00,
2013-05-13 07:42:00,39.0,37.0,30.15,NW,316,0.0,1.0,94,0.00,,,0.00,,2013-05-13 12:42:00,
2013-05-13 07:52:00,41.0,35.0,30.15,SSE,163,0.0,2.0,80,0.00,,,0.00,,2013-05-13 12:52:00,
2013-05-13 08:01:00,42.0,35.0,30.15,SSE,153,1.0,3.0,77,0.00,,,0.00,,2013-05-13 13:01:00,
2013-05-13 08:11:00,42.0,35.0,30.15,SSE,153,1.0,3.0,77,0.00,,,0.00,,2013-05-13 13:11:00,
2013-05-13 08:21:00,43.0,32.0,30.15,South,184,3.0,4.0,65,0.00,,,0.00,,2013-05-13 13:21:00,
2013-05-13 08:31:00,44.0,32.0,30.16,SSE,162,2.0,6.0,63,0.00,,,0.00,,2013-05-13 13:31:00,
2013-05-13 08:41:00,45.0,31.0,30.16,East,91,2.0,5.0,58,0.00,,,0.00,,2013-05-13 13:41:00,
2013-05-13 08:52:00,45.0,31.0,30.16,East,91,2.0,5.0,58,0.00,,,0.00,,2013-05-13 13:52:00,
2013-05-13 09:02:00,46.0,32.0,30.16,West,269,1.0,3.0,57,0.00,,,0.00,,2013-05-13 14:02:00,
2013-05-13 09:11:00,46.0,32.0,30.16,West,269,1.0,3.0,57,0.00,,,0.00,,2013-05-13 14:11:00,
2013-05-13 09:22:00,48.0,31.0,30.16,SSE,153,2.0,4.0,52,0.00,,,0.00,,2013-05-13 14:22:00,
2013-05-13 09:31:00,48.0,27.0,30.16,ENE,75,1.0,4.0,43,0.00,,,0.00,,2013-05-13 14:31:00,
2013-05-13 09:41:00,48.0,27.0,30.16,ENE,75,1.0,4.0,43,0.00,,,0.00,,2013-05-13 14:41:00,
2013-05-13 09:52:00,48.0,26.0,30.16,West,277,1.0,5.0,42,0.00,,,0.00,,2013-05-13 14:52:00,
2013-05-13 10:01:00,49.0,28.0,30.16,NNW,335,1.0,3.0,44,0.00,,,0.00,,2013-05-13 15:01:00,
2013-05-13 10:11:00,49.0,28.0,30.16,NNW,335,1.0,3.0,44,0.00,,,0.00,,2013-05-13 15:11:00,
2013-05-13 10:21:00,50.0,30.0,30.16,NW,316,2.0,5.0,46,0.00,,,0.00,,2013-05-13 15:21:00,
2013-05-13 10:31:00,50.0,28.0,30.16,WSW,242,2.0,5.0,43,0.00,,,0.00,,2013-05-13 15:31:00,
2013-05-13 10:42:00,50.0,28.0,30.16,WSW,242,2.0,5.0,43,0.00,,,0.00,,2013-05-13 15:42:00,
2013-05-13 10:53:00,52.0,29.0,30.16,SSW,212,2.0,5.0,41,0.00,,,0.00,,2013-05-13 15:53:00,
2013-05-13 11:03:00,52.0,28.0,30.16,SE,131,2.0,6.0,40,0.00,,,0.00,,2013-05-13 16:03:00,
2013-05-13 11:11:00,52.0,28.0,30.16,SE,131,2.0,6.0,40,0.00,,,0.00,,2013-05-13 16:11:00,
2013-05-13 11:21:00,52.0,29.0,30.16,East,88,2.0,5.0,41,0.00,,,0.00,,2013-05-13 16:21:00,
2013-05-13 11:33:00,53.0,27.0,30.16,NNW,328,2.0,4.0,37,0.00,,,0.00,,2013-05-13 16:33:00,
2013-05-13 11:42:00,53.0,27.0,30.15,NNW,332,4.0,7.0,36,0.00,,,0.00,,2013-05-13 16:42:00,
2013-05-13 11:53:00,53.0,27.0,30.15,NNW,332,4.0,7.0,36,0.00,,,0.00,,2013-05-13 16:53:00,
2013-05-13 12:02:00,54.0,26.0,30.15,SSE,147,3.0,8.0,34,0.00,,,0.00,,2013-05-13 17:02:00,
2013-05-13 12:12:00,54.0,26.0,30.15,SSE,147,3.0,8.0,34,0.00,,,0.00,,2013-05-13 17:12:00,
2013-05-13 12:21:00,54.0,28.0,30.14,WSW,239,2.0,7.0,37,0.00,,,0.00,,2013-05-13 17:21:00,
2013-05-13 12:32:00,55.0,30.0,30.14,SW,226,3.0,8.0,38,0.00,,,0.00,,2013-05-13 17:32:00,
2013-05-13 12:42:00,56.0,24.0,30.13,NNE,17,7.0,12.0,29,0.00,,,0.00,,2013-05-13 17:42:00,
2013-05-13 12:54:00,56.0,24.0,30.13,NNE,17,7.0,12.0,29,0.00,,,0.00,,2013-05-13 17:54:00,
2013-05-13 13:03:00,56.0,27.0,30.13,NNE,28,2.0,9.0,32,0.00,,,0.00,,2013-05-13 18:03:00,
2013-05-13 13:12:00,56.0,27.0,30.13,NNE,28,2.0,9.0,32,0.00,,,0.00,,2013-05-13 18:12:00,
2013-05-13 13:23:00,56.0,25.0,30.12,WNW,282,1.0,9.0,30,0.00,,,0.00,,2013-05-13 18:23:00,
2013-05-13 13:32:00,57.0,27.0,30.11,NW,308,4.0,7.0,32,0.00,,,0.00,,2013-05-13 18:32:00,
2013-05-13 13:42:00,57.0,26.0,30.11,SE,135,3.0,6.0,30,0.00,,,0.00,,2013-05-13 18:42:00,
2013-05-13 13:52:00,57.0,26.0,30.11,SE,135,3.0,6.0,30,0.00,,,0.00,,2013-05-13 18:52:00,
2013-05-13 14:01:00,57.0,29.0,30.11,NE,39,6.0,7.0,34,0.00,,,0.00,,2013-05-13 19:01:00,
2013-05-13 14:11:00,57.0,29.0,30.11,NE,39,6.0,7.0,34,0.00,,,0.00,,2013-05-13 19:11:00,
2013-05-13 14:21:00,55.0,36.0,30.11,SE,143,4.0,9.0,48,0.00,,,0.00,,2013-05-13 19:21:00,
2013-05-13 14:32:00,55.0,36.0,30.11,East,91,5.0,8.0,48,0.00,,,0.00,,2013-05-13 19:32:00,
2013-05-13 14:43:00,54.0,36.0,30.10,East,80,5.0,8.0,50,0.00,,,0.00,,2013-05-13 19:43:00,
2013-05-13 14:53:00,54.0,36.0,30.10,East,80,5.0,8.0,50,0.00,,,0.00,,2013-05-13 19:53:00,
2013-05-13 15:01:00,53.0,35.0,30.10,ENE,58,6.0,14.0,51,0.00,,,0.00,,2013-05-13 20:01:00,
2013-05-13 15:11:00,53.0,35.0,30.10,ENE,58,6.0,14.0,51,0.00,,,0.00,,2013-05-13 20:11:00,
2013-05-13 15:23:00,53.0,34.0,30.09,ESE,103,5.0,10.0,49,0.00,,,0.00,,2013-05-13 20:23:00,
2013-05-13 15:33:00,54.0,36.0,30.09,ESE,103,4.0,7.0,51,0.00,,,0.00,,2013-05-13 20:33:00,
2013-05-13 15:44:00,54.0,35.0,30.08,East,87,4.0,8.0,49,0.00,,,0.00,,2013-05-13 20:44:00,
2013-05-13 15:53:00,54.0,35.0,30.08,East,87,4.0,8.0,49,0.00,,,0.00,,2013-05-13 20:53:00,
2013-05-13 16:03:00,53.0,34.0,30.08,South,186,6.0,11.0,49,0.00,,,0.00,,2013-05-13 21:03:00,
2013-05-13 16:14:00,53.0,34.0,30.08,South,186,6.0,11.0,49,0.00,,,0.00,,2013-05-13 21:14:00,
2013-05-13 16:23:00,54.0,35.0,30.07,ENE,72,3.0,8.0,48,0.00,,,0.00,,2013-05-13 21:23:00,
2013-05-13 16:33:00,54.0,35.0,30.06,SE,131,4.0,7.0,48,0.00,,,0.00,,2013-05-13 21:33:00,
2013-05-13 16:43:00,54.0,35.0,30.06,SE,131,4.0,7.0,48,0.00,,,0.00,,2013-05-13 21:43:00,
2013-05-13 16:53:00,52.0,33.0,30.06,East,97,4.0,8.0,48,0.00,,,0.00,,2013-05-13 21:53:00,
2013-05-13 17:02:00,52.0,33.0,30.06,East,97,4.0,8.0,48,0.00,,,0.00,,2013-05-13 22:02:00,
2013-05-13 17:12:00,52.0,33.0,30.06,East,97,4.0,8.0,48,0.00,,,0.00,,2013-05-13 22:12:00,
2013-05-13 17:23:00,52.0,34.0,30.06,ENE,63,2.0,11.0,50,0.00,,,0.00,,2013-05-13 22:23:00,
2013-05-13 17:32:00,52.0,33.0,30.06,ESE,115,4.0,7.0,48,0.00,,,0.00,,2013-05-13 22:32:00,
2013-05-13 17:43:00,51.0,33.0,30.06,SE,125,3.0,7.0,50,0.00,,,0.00,,2013-05-13 22:43:00,
2013-05-13 17:52:00,51.0,33.0,30.06,SE,125,3.0,7.0,50,0.00,,,0.00,,2013-05-13 22:52:00,
2013-05-13 18:01:00,50.0,32.0,30.05,East,93,4.0,7.0,50,0.00,,,0.00,,2013-05-13 23:01:00,
2013-05-13 18:12:00,50.0,32.0,30.05,East,93,4.0,7.0,50,0.00,,,0.00,,2013-05-13 23:12:00,
2013-05-13 18:23:00,49.0,32.0,30.05,SE,139,3.0,6.0,51,0.00,,,0.00,,2013-05-13 23:23:00,
2013-05-13 18:33:00,48.0,31.0,30.06,ESE,115,3.0,7.0,51,0.00,,,0.00,,2013-05-13 23:33:00,
2013-05-13 18:42:00,48.0,31.0,30.06,ESE,115,3.0,7.0,51,0.00,,,0.00,,2013-05-13 23:42:00,
2013-05-13 18:54:00,48.0,31.0,30.05,SE,126,3.0,8.0,52,0.00,,,0.00,,2013-05-13 23:54:00,
2013-05-13 19:02:00,47.0,31.0,30.04,ESE,123,3.0,5.0,53,0.00,,,0.00,,2013-05-14 00:02:00,
2013-05-13 19:12:00,46.0,30.0,30.03,East,95,3.0,9.0,53,0.00,,,0.00,,2013-05-14 00:12:00,
2013-05-13 19:22:00,46.0,30.0,30.03,East,95,3.0,9.0,53,0.00,,,0.00,,2013-05-14 00:22:00,
2013-05-13 19:31:00,46.0,30.0,30.03,ESE,116,5.0,8.0,53,0.00,,,0.00,,2013-05-14 00:31:00,
2013-05-13 19:41:00,46.0,30.0,30.03,ESE,116,5.0,8.0,53,0.00,,,0.00,,2013-05-14 00:41:00,
2013-05-13 19:52:00,46.0,31.0,30.03,ESE,105,3.0,7.0,55,0.00,,,0.00,,2013-05-14 00:52:00,
2013-05-13 20:01:00,45.0,31.0,30.03,SE,133,3.0,6.0,57,0.00,,,0.00,,2013-05-14 01:01:00,
2013-05-13 20:11:00,45.0,31.0,30.03,SE,133,3.0,6.0,57,0.00,,,0.00,,2013-05-14 01:11:00,
2013-05-13 20:21:00,45.0,31.0,30.03,East,98,3.0,4.0,57,0.00,,,0.00,,2013-05-14 01:21:00,
2013-05-13 20:31:00,45.0,30.0,30.03,ESE,120,3.0,9.0,56,0.00,,,0.00,,2013-05-14 01:31:00,
2013-05-13 20:43:00,45.0,30.0,30.03,ESE,120,3.0,9.0,56,0.00,,,0.00,,2013-05-14 01:43:00,
2013-05-13 20:53:00,45.0,31.0,30.05,ESE,110,3.0,5.0,58,0.00,,,0.00,,2013-05-14 01:53:00,
2013-05-13 21:02:00,45.0,32.0,30.05,East,86,1.0,4.0,60,0.00,,,0.00,,2013-05-14 02:02:00,
2013-05-13 21:11:00,45.0,31.0,30.04,ESE,113,1.0,5.0,58,0.00,,,0.00,,2013-05-14 02:11:00,
2013-05-13 21:22:00,45.0,31.0,30.04,ESE,113,1.0,5.0,58,0.00,,,0.00,,2013-05-14 02:22:00,
2013-05-13 21:32:00,45.0,31.0,30.04,ESE,119,2.0,4.0,58,0.00,,,0.00,,2013-05-14 02:32:00,
2013-05-13 21:42:00,45.0,31.0,30.04,ESE,119,2.0,4.0,58,0.00,,,0.00,,2013-05-14 02:42:00,
2013-05-13 21:52:00,45.0,31.0,30.03,SE,133,3.0,5.0,58,0.00,,,0.00,,2013-05-14 02:52:00,
2013-05-13 22:01:00,45.0,32.0,30.03,East,101,1.0,5.0,59,0.00,,,0.00,,2013-05-14 03:01:00,
2013-05-13 22:11:00,45.0,32.0,30.03,East,101,1.0,5.0,59,0.00,,,0.00,,2013-05-14 03:11:00,
2013-05-13 22:21:00,45.0,31.0,30.02,ESE,103,2.0,4.0,58,0.00,,,0.00,,2013-05-14 03:21:00,
2013-05-13 22:33:00,45.0,31.0,30.02,ESE,116,2.0,3.0,58,0.00,,,0.00,,2013-05-14 03:33:00,
2013-05-13 22:42:00,45.0,31.0,30.02,ESE,116,2.0,3.0,58,0.00,,,0.00,,2013-05-14 03:42:00,
2013-05-13 22:53:00,45.0,31.0,30.01,East,83,2.0,5.0,58,0.00,,,0.00,,2013-05-14 03:53:00,
2013-05-13 23:02:00,45.0,31.0,30.00,South,169,2.0,7.0,58,0.00,,,0.00,,2013-05-14 04:02:00,
2013-05-13 23:13:00,45.0,31.0,30.00,South,169,2.0,7.0,58,0.00,,,0.00,,2013-05-14 04:13:00,
2013-05-13 23:22:00,46.0,32.0,29.99,East,96,2.0,6.0,58,0.00,,,0.00,,2013-05-14 04:22:00,
2013-05-13 23:32:00,46.0,32.0,29.98,ESE,115,3.0,7.0,59,0.00,,,0.00,,2013-05-14 04:32:00,
2013-05-13 23:43:00,46.0,32.0,29.98,ESE,115,3.0,7.0,59,0.00,,,0.00,,2013-05-14 04:43:00,
2013-05-13 23:53:00,46.0,32.0,29.96,SE,134,2.0,8.0,59,0.00,,,0.00,,2013-05-14 04:53:00,